Location: Newark
(22.3060°N, 114.2134°E)
Time: 19:43:47
(UTC+00:00)

Explorer 11/Cluster Stage 4 - Pass Details

Date: 06 August 2021
Orbit: 467 x 1256 km, 28.8° (Epoch: 27 September)

Event Time Altitude Azimuth Distance (km) Brightness Sun altitude
Rises 02:05:54 0° 285° (WNW) 3,977 9.9 55.9°
Reaches altitude 10° 02:08:41 10° 290° (WNW) 3,093 9.4 56.5°
Maximum altitude 02:16:29 57° 8° (N) 1,436 8.8 58.3°
Drops below altitude 10° 02:24:33 10° 85° (E) 3,196 10.3 60.2°
Sets 02:27:28 0° 89° (E) 4,116 10.7 60.8°
